www.pogodaiklimat.ru

Погода и климат >> Архив погоды >> Россия >> Амурская область >> Сергеевка


ПОГОДА в Сергеевке

  • Прогноз погоды в Сергеевке
  • Монитор погоды в Сергеевке

АРХИВ ПОГОДЫ в Сергеевке

Время (UTC), дата Ветер
(напр.,м/с)
 
Видим.   Явления Облачность Т
(С)
Тd
(С)
f
(%)
Тe
(С)
Тes
(С)
Комфортность P
(гПа)
Po
(гПа)
Тmin
(С)
Tmax
(С)
R
(мм)
R24
(мм)
S
(см)
00 15.08 В 1 50 км {ливн. осадки} 10/10 300 м
[Cb cap]
+20.4 +17.8 85 +25 +25 комфорт 1003.3 986.7 +18.8 0.0
03 15.08 СВ 1 50 км слаб. ливневой дождь 10 баллов +21.6 +18.6 83 +26 +26 душно 1004.6 988.0
06 15.08 ЮВ 3 50 км 7 баллов +24.9 +17.9 65 +29 +32 душно 1003.1 986.7
09 15.08 В 2 50 км 9 баллов +24.3 +17.8 67 +28 +29 душно 1003.1 986.7
12 15.08 СВ 1 10 км 8/8 600 м
[Sc]
+18.9 +17.2 90 +21 +21 комфорт 1003.6 986.9 +27.0 0.0
15 15.08 С 2 50 км 9 баллов +17.8 +16.7 93 +18 +18 1004.8 988.0
18 15.08 С 2 50 км 10 баллов +17.7 +16.7 94 +18 +18 1003.5 986.7
21 15.08 С 2 50 км 10 баллов +17.7 +16.6 93 +18 +18 1003.5 986.7
00 16.08 СВ 2 50 км 10/10 600 м
[Cu Sc]
+20.2 +16.1 77 +24 +24 комфорт 1002.5 985.9 +17.0
03 16.08 СВ 3 50 км 10 баллов +22.3 +15.4 65 +26 +26 жарко 1001.8 985.3
06 16.08 СВ 3 50 км 10 баллов +21.3 +15.4 69 +24 +24 комфорт 1001.9 985.3
09 16.08 С 2 50 км слаб. ливневой дождь 10 баллов +19.1 +15.2 78 +21 +21 комфорт 1000.7 984.0
12 16.08 С 2 10 км слаб. ливневой дождь 10/8 600 м
[Cb cap Cs]
+16.5 +15.3 93 +17 +17 999.9 983.0 +23.4 2
15 16.08 С 3 10 км слаб. ливневой дождь 10 баллов +15.7 +14.2 91 +15 +15 999.6 982.7
18 16.08 С 2 10 км слаб. ливневой дождь 10 баллов +14.9 +13.8 93 +15 +15 998.2 981.3
21 16.08 С 3 10 км слаб. ливневой дождь 10 баллов +14.3 +13.0 92 +13 +13 998.2 981.3
00 17.08 С 2 4000 м слаб. ливневой дождь 10/10 600 м
[Cb cap]
+15.0 +13.5 91 +15 +15 997.0 980.1 +14.3 5
03 17.08 С 3 10 км слаб. ливневой дождь 10 баллов +16.5 +14.1 86 +16 +16 998.1 981.3
06 17.08 С 4 50 км в посл. час ливневой дождь 10 баллов +18.1 +14.4 79 +18 +18 998.0 981.3
09 17.08 С 3 4000 м слаб. ливневой дождь 10 баллов +16.4 +15.1 92 +16 +16 998.1 981.3
12 17.08 В 1 4000 м слаб. ливневой дождь 10/10 600 м
[Cb cap]
+15.5 +14.4 93 +16 +16 998.6 981.7 +18.3 10
15 17.08 В 1 4000 м слаб. ливневой дождь 10 баллов +14.9 +13.8 93 +15 +15 999.6 982.7
18 17.08 СВ 1 4000 м слаб. ливневой дождь 10 баллов +14.2 +13.1 93 +14 +14 1001.0 984.0
21 17.08 СВ 2 4000 м слаб. ливневой дождь 10 баллов +13.3 +12.0 92 +13 +13 1002.4 985.3
00 18.08 СВ 3 50 км в посл. час ливневой дождь 10/10 300 м
[Cb cap]
+14.8 +12.6 87 +14 +14 1001.9 984.9 +13.3 3
03 18.08 СВ 3 50 км слаб. ливневой дождь 10 баллов +15.2 +13.0 87 +14 +14 1003.7 986.7
06 18.08 С 4 50 км в посл. час ливневой дождь 10 баллов +15.2 +13.0 87 +14 +14 1005.0 988.0
09 18.08 С 3 50 км слаб. ливневой дождь 10 баллов +15.0 +12.3 84 +14 +14 1006.3 989.3
12 18.08 СЗ 3 10 км {ливн. осадки} 9/9 600 м
[Cb cap]
+13.5 +11.6 88 +12 +12 1006.9 989.8 +16.1 2
15 18.08 С 1 50 км 7 баллов +11.7 +10.4 92 +11 +11 1009.3 992.0
18 18.08 СЗ 2 50 км 7 баллов +12.5 +10.9 90 +12 +12 1009.2 992.0
21 18.08 СЗ 1 50 км 7 баллов +11.6 +10.3 92 +11 +11 1010.6 993.3
00 19.08 СЗ 4 50 км 8/8 300 м
[Cb calv Ac trans]
+15.5 +11.4 77 +15 +15 1010.5 993.4 +11.5 0.0
03 19.08 СЗ 4 50 км 9 баллов +16.9 +10.5 66 +16 +17 1011.7 994.7
06 19.08 СЗ 3 50 км слаб. ливневой дождь 9 баллов +17.9 +11.2 65 +18 +19 1011.7 994.7
09 19.08 С 3 50 км 2 балла +18.2 +10.8 62 +19 +19 1011.7 994.7
12 19.08 СЗ 1 10 км 1/1 600 м
[Sc]
+12.0 +10.2 89 +12 +12 1012.8 995.5 +18.9 0.0
15 19.08 С 1 50 км 9 баллов +10.7 +9.6 93 +10 +10 1014.8 997.3
18 19.08 СЗ 2 50 км 9 баллов +8.6 +7.5 93 +7 +7 1014.9 997.3
21 19.08 С 1 50 км 9 баллов +9.5 +8.4 93 +9 +9 1014.8 997.3
00 20.08 штиль 0 50 км 9/9 600 м
[Sc]
+12.8 +10.4 85 +12 +13 1013.1 995.8 +7.9
03 20.08 Ю 1 50 км 10 баллов +17.5 +13.2 76 +19 +19 1013.0 996.0
06 20.08 ЮВ 2 50 км 10 баллов +19.7 +12.9 65 +22 +22 комфорт 1011.6 994.7
09 20.08 Ю 1 50 км 10 баллов +18.4 +14.3 77 +20 +20 1011.6 994.7
12 20.08 С 1 50 км 10/8 600 м
[Sc Cs]
+15.9 +14.3 90 +17 +17 1009.7 992.7 +19.8
15 20.08 СЗ 1 10 км слаб. ливневой дождь 10 баллов +14.9 +13.6 92 +15 +15 1010.4 993.3
18 20.08 З 1 10 км слаб. ливневой дождь 10 баллов +14.5 +13.0 91 +15 +15 1009.1 992.0
21 20.08 В 1 50 км в посл. час ливневой дождь 10 баллов +15.1 +13.3 89 +16 +16 1007.8 990.7
00 21.08 В 2 50 км слаб. ливневой дождь 10/10 300 м
[Cb cap]
+16.2 +13.5 84 +16 +16 1005.5 988.5 +14.2 2
03 21.08 ЮВ 4 10 км слаб. ливневой дождь 10 баллов +18.0 +15.1 83 +18 +18 1006.1 989.3
06 21.08 В 3 50 км в посл. час ливневой дождь 10 баллов +19.3 +16.0 81 +21 +21 комфорт 1004.7 988.0
09 21.08 В 2 50 км слаб. ливневой дождь 10 баллов +18.1 +16.8 92 +19 +19 1004.8 988.0
12 21.08 В 2 50 км в посл. час ливневой дождь 10/10 600 м
[Cb cap]
+17.6 +15.8 89 +18 +18 1005.0 988.1 +20.5 8
15 21.08 СВ 1 50 км 10 баллов +16.4 +15.1 92 +17 +17 1006.2 989.3
18 21.08 С 2 10 км слаб. ливневой дождь 10 баллов +16.5 +15.2 92 +17 +17 1006.2 989.3
21 21.08 СВ 3 50 км в посл. час ливневой дождь 10 баллов +16.7 +14.5 87 +16 +16 1006.2 989.3

 

Местоположение метеостанции Сергеевка (Амурская область, Россия): широта 50.78 долгота 127.30 высота над уровнем моря 145 м.

В архиве по умолчанию представлена погода в Сергеевке за последнюю неделю. Архивные данные за месяц целиком и за предыдущие месяцы, начиная с января 2011 года, Вы можете получить, выбрав интересующий диапазон дат из раскрывающегося списка и нажав кнопку "Ввод!".


*Определитесь, кто Вы:
робот инопланетянин человек

Внимание! Время в таблицах - всемирное. Для получения местного времени необходимо прибавить поправку, которая равна 9 ч.

Смотрите также архив погоды в соседних городах и на ближайших метеорологических станциях:

Погода в Благовещенске (Амурская область, Россия) (56 км)
Погода в Айгуне (Хэйлунцзян, Китай) (60 км)
Погода в Белогорске (Амурская область, Россия) (79 км)
Погода в Свободном (Амурская область, Россия) (93 км)
Погода в Саскале (Амурская область, Россия) (101 км)
Погода в Хума (Хэйлунцзян, Китай) (114 км)
Погода в Екатеринославке (Амурская область, Россия) (128 км)
Погода в Шимановске (Амурская область, Россия) (135 км)
Погода в Константиновке (Амурская область, Россия) (136 км)
Погода в Братолюбовке (Амурская область, Россия) (141 км)

Пояснения к столбцам:

Ветер - указаны скорость ветра в м/с - средняя за 10 мин, порывы в срок и между сроками (в фигурных скобках) и направление, откуда дует ветер: С - северный, СВ - северо-восточный, В - восточный, ЮВ - юго-восточный, Ю - южный, ЮЗ - юго-западный, З - западный, СЗ - северо-западный.
Видимость - горизонтальная дальность видимости в метрах или километрах. При видимости от 1 до 10 км при отсутствии осадков обычно наблюдается дымка, при ухудшении видимости до 1 км и менее - туман. В сухую погоду видимость может ухудшаться дымом, пылью или мглою.
Явления - указаны атмосферные явления, наблюдавшиеся в срок или в последний час перед сроком; фигурными скобками обозначены явления, наблюдавшиеся между сроками (за 1-3 часа до срока); квадратными скобками обозначены град или гололедные отложения с указанием их диаметра в мм.
Облачность - указаны через наклонную черту общая и нижняя облачность в баллах и высота нижней границы облаков в метрах; квадратными скобками обозначены формы облаков: Ci - перистые, Cs - перисто-слоистые, Cc - перисто-кучевые, Ac - высококучевые, As - высокослоистые, Sc - слоисто-кучевые, Ns - слоисто-дождевые, Cu - кучевые, Cb - кучево-дождевые. Подробнее классификацию облаков см. в Атласе облаков (PDF).
T - Температура воздуха - температура, измеренная на высоте 2 м над землей.
Td - Температура точки росы - температура, при понижении до которой содержащийся в воздухе водяной пар достигнет насыщения.
f - Относительная влажность воздуха - влажноcть воздуха, измеренная на высоте 2 м над землей.
Te - Эффективная температура - температура, которую ощущает одетый по сезону человек в тени. Характеристика душности погоды. При расчете учитывается влияние влажности воздуха и скорости ветра на теплоощущения человека.
Tes - Эффективная температура на солнце - температура, которую ощущает человек, с поправкой на солнечный нагрев. Характеристика знойности погоды. Зависит от высоты солнца над горизонтом, облачности и скорости ветра. Ночью, в пасмурную погоду, а также при ветре 12 м/с и более поправка равна нулю.
P - Атмосферное давление - приведенное к уровню моря атмосферное давление.
Po - Атмосферное давление - измеренное на уровне метеостанции атмосферное давление.
Tmin - Минимальная температура - минимум температуры воздуха на высоте 2 м над землей.
Tmax - Максимальная температура - максимум температуры воздуха на высоте 2 м над землей.
R - Количество осадков - Количество выпавших осадков за период времени, мм. При наведении курсора мыши на число - период времени, за который выпало указанное количество осадков.
R24 - Количество осадков - Количество выпавших осадков за 24 часа, мм.
S - Снежный покров - Высота снежного покрова, см. При наведении курсора мыши на число - состояние снежного покрова и степень покрытия местности в баллах.